Location: Rancho Del Sol Observatory
(38.7214°N, 120.6350°W)
Time: 20:32:46
(UTC-07:00)

Cosmos 2221 Rocket - Visible Passes

Search period start: 22 August 2014 00:00
Search period end: 01 September 2014 00:00
Orbit: 623 x 649 km, 82.5° (Epoch: 22 August)

Date Brightness Start Highest point End Pass type
(mag) Time Alt. Az. Time Alt. Az. Time Alt. Az.
22 Aug 5.8 02:46:52 24° NNE 02:46:52 24° NNE 02:48:45 10° NNE visible
22 Aug 5.9 04:24:23 12° NW 04:24:23 12° NW 04:25:04 10° NW visible
23 Aug 5.6 03:09:37 25° N 03:09:37 25° N 03:11:29 10° N visible
24 Aug 6.7 01:54:49 11° NE 01:54:49 11° NE 01:55:00 10° NE visible
24 Aug 5.8 03:32:20 18° NNW 03:32:20 18° NNW 03:33:48 10° NNW visible
25 Aug 6.4 02:17:32 16° NNE 02:17:32 16° NNE 02:18:27 10° NNE visible
25 Aug 6.1 03:55:03 11° NW 03:55:03 11° NW 03:55:24 10° NW visible
26 Aug 6.2 02:40:14 17° N 02:40:14 17° N 02:41:19 10° N visible
27 Aug 6.2 03:02:55 15° NNW 03:02:55 15° NNW 03:03:44 10° N visible
28 Aug 6.8 01:48:05 10° NNE 01:48:05 10° NNE 01:48:08 10° NNE visible
29 Aug 6.7 02:10:45 12° N 02:10:45 12° N 02:11:06 10° N visible
30 Aug 6.6 02:33:24 11° N 02:33:24 11° N 02:33:38 10° N visible
